Regional Weather Roundup
Issued by NWS

Home | Current Version | Previous Version | Text Only | Print | Product List | Glossary Off
Versions: 1 2 3 4 5 6 7 8 9 10 11 12 13 14 15 16 17 18 19 20 21 22 23 24 25 26 27 28 29 30 31 32 33 34 35 36 37 38 39 40 41 42 43 44 45 46 47 48 49 50

000
ASUS43 KDMX 261301
RWRIA

WEATHER ROUNDUP FOR IOWA
NATIONAL WEATHER SERVICE DES MOINES IA
800 AM CDT WED JUL 26 2017

NOTE: "FAIR" INDICATES FEW OR NO CLOUDS BELOW 12,000 FEET WITH NO
SIGNIFICANT WEATHER AND/OR OBSTRUCTIONS TO VISIBILITY.

* - THESE STATIONS ARE NOT NWS STATIONS...THUS NOT UNDER NWS
QUALITY CONTROL.  THEY ALSO DO NOT REPORT WEATHER SUCH
AS PRECIPITATION OR FOG.

IAZ001>003-012>014-020>022-031>034-043>046-261400-
   NORTHWEST IOWA

CITY           SKY/WX    TMP DP  RH WIND       PRES   REMARKS
CARROLL *      LGT RAIN  73  73 100 W5        30.00R
CHEROKEE *     CLOUDY    71  71 100 E6        29.97F
DENISON *      LGT RAIN  73  73 100 CALM      30.00F
ORANGE CITY *  PTSUNNY   72  72 100 N9        30.00R
SHELDON *      CLOUDY    72  70  94 CALM      30.01R
SIOUX CITY     CLOUDY    72  72 100 CALM      29.94S
SPENCER        LGT RAIN  73  70  90 NE6       30.02R
STORM LAKE *   RAIN      70  70 100 N8        30.00S VSB 3/4
$$

IAZ055>058-069>071-079>083-090>094-261400-
   SOUTHWEST IOWA

CITY           SKY/WX    TMP DP  RH WIND       PRES   REMARKS
ATLANTIC *     RAIN      73  72  94 NW7       30.02R
AUDUBON *      RAIN      72  66  83 SW10G17   30.05R
CLARINDA *     CLOUDY    77  72  83 W22       30.04R
COUNCIL BLFS * LGT RAIN  72  72 100 S8        29.99S
CRESTON *      CLOUDY    75  70  83 S16       30.02R
HARLAN  *      LGT RAIN  73  73 100 NE8       30.03F
LAMONI         CLOUDY    73  70  90 S7        30.01S
RED OAK *      LGT RAIN  73  73 100 SW7       30.02S
SHENANDOAH *   LGT RAIN  73  72  94 CALM      30.03S
$$

IAZ047>049-059>061-072>074-084-261400-
   CENTRAL IOWA

CITY           SKY/WX    TMP DP  RH WIND       PRES   REMARKS
AMES           CLOUDY    72  71  97 SE6       29.99F
ANKENY *       CLOUDY    75  70  83 SE6       30.00F
BOONE *        CLOUDY    73  70  88 SE5       29.99S
CHARITON *     CLOUDY    73  70  88 S7        30.01S
DES MOINES     CLOUDY    75  69  81 S9        29.98F
GRINNELL*      CLOUDY    73  69  89 S6        30.04R
KNOXVILLE *    CLOUDY    75  70  83 S6        30.00S
MARSHALLTOWN   CLOUDY    74  70  87 SE7       30.00S
NEWTON *       CLOUDY    72  70  94 SE6       30.02S
PELLA *          N/A     74  69  83 S3        30.03R
PERRY *          N/A     73  72  95 SE3       29.99S
$$

IAZ004>006-015-016-023>025-035-036-261400-
   NORTH CENTRAL IOWA

CITY           SKY/WX    TMP DP  RH WIND       PRES   REMARKS
ALGONA *       LGT RAIN  72  72 100 N9        30.01R
CLARION *      CLOUDY    73  73 100 S5        30.00F
ESTHERVILLE    CLOUDY    71  71 100 NE7       30.01F
FORT DODGE *   CLOUDY    73  70  88 SE5       30.00S
MASON CITY     CLOUDY    72  70  93 SE3       30.02F FOG
FOREST CITY *  PTSUNNY   73  72  94 S7        29.99F FOG
WEBSTER CITY * CLOUDY    73  72  94 CALM      29.98S
IOWA FALLS *     N/A     73  69  88 SE6       30.02S
$$

IAZ007>011-017>019-026>030-037>042-050>054-066-261400-
   NORTHEAST IOWA

CITY           SKY/WX    TMP DP  RH WIND       PRES   REMARKS
CHARLES CITY * CLOUDY    72  72 100 SW3       30.03S
DECORAH *      MOSUNNY   72  70  94 SW5       30.02S
DUBUQUE        MOSUNNY   69  67  93 S12       30.05S
MONTICELLO *   MOSUNNY   73  70  88 VRB6      30.03F
OELWEIN *      CLOUDY    72  72 100 S8        30.04S
WATERLOO       CLOUDY    72  68  87 S6        30.01S
$$

IAZ064-065-067-068-078-261400-
   EAST CENTRAL IOWA

CITY           SKY/WX    TMP DP  RH WIND       PRES   REMARKS
DAVENPORT      CLOUDY    74  68  81 S10       30.07R
IOWA CITY      PTSUNNY   73  69  87 SE5       30.04S
MUSCATINE *    CLOUDY    73  68  83 SE5       30.04S
QUAD CITIES    CLOUDY    73  67  81 S5        30.04S
$$

IAZ062-063-075>077-085>089-095>099-261400-
   SOUTHEAST IOWA

CITY           SKY/WX    TMP DP  RH WIND       PRES   REMARKS
BURLINGTON     MOSUNNY   73  70  90 S8        30.05R
FAIRFIELD *    CLOUDY    75  70  83 S8        30.03S
FORT MADISON * SUNNY     73  70  88 S9        30.05R
KEOKUK *       SUNNY     75  70  83 S6        30.04R
OSKALOOSA *      N/A     73  70  89 S6        30.03R
OTTUMWA        CLOUDY    75  71  87 S9        30.02S
WASHINGTON *   PTSUNNY   75  72  88 S6        30.05R
$$

ABBREVIATIONS USED IN REMARKS
   TC - TEMPERATURES IN CELSIUS
  WCI - WIND CHILL INDEX
   HX - HEAT INDEX
  VSB - VISIBILITY
$$




USA.gov is the U.S. government's official web portal to all federal, state and local government web resources and services.